SAS7100 LATI-ENGM

Flight info

Callsign SAS7100
Flight time 2h 51m
Altitude 38000
Route RINAV DCT ALELU DCT TONDO DCT VALPI DCT BINPO DCT POKEN DCT SABAK L997 REGMA DCT LUNIP
Aircraft A20N/M-SDE2E3FGHIRWXY/LB1

Departure

Time 2026-05-08 14:45
Airport Tirana International Airport Mother Teresa (LATI)

Arrival

Time 2026-05-08 17:37
Airport Oslo-Gardermoen International Airport (ENGM)
Time Latitude Longitude Altitude Speed Heading
2026-05-08 14:21 41.41988 19.71509 122 ft 0 kts 264°
2026-05-08 14:33 41.41988 19.71514 151 ft 2 kts 263°
2026-05-08 14:34 41.41990 19.71535 116 ft 2 kts 260°
2026-05-08 14:34 41.41994 19.71557 123 ft 2 kts 245°
2026-05-08 14:34 41.42005 19.71572 119 ft 2 kts 182°
2026-05-08 14:34 41.42013 19.71571 120 ft 0 kts 175°
2026-05-08 14:38 41.42010 19.71572 122 ft 1 kts 175°
2026-05-08 14:38 41.42004 19.71573 122 ft 2 kts 173°
2026-05-08 14:38 41.41978 19.71577 121 ft 6 kts 173°
2026-05-08 14:38 41.41919 19.71587 122 ft 11 kts 173°
2026-05-08 14:39 41.41829 19.71599 121 ft 15 kts 174°
2026-05-08 14:39 41.41721 19.71614 123 ft 16 kts 173°
2026-05-08 14:39 41.41607 19.71632 123 ft 17 kts 174°
2026-05-08 14:39 41.41486 19.71643 123 ft 18 kts 175°
2026-05-08 14:40 41.41363 19.71661 125 ft 17 kts 174°
2026-05-08 14:40 41.41248 19.71675 128 ft 16 kts 174°
2026-05-08 14:40 41.41144 19.71689 127 ft 15 kts 174°
2026-05-08 14:40 41.41038 19.71703 128 ft 16 kts 174°
2026-05-08 14:41 41.40923 19.71721 129 ft 17 kts 169°
2026-05-08 14:41 41.40810 19.71751 131 ft 17 kts 169°
2026-05-08 14:41 41.40695 19.71772 131 ft 17 kts 174°
2026-05-08 14:41 41.40581 19.71786 132 ft 16 kts 175°
2026-05-08 14:42 41.40467 19.71800 132 ft 16 kts 174°
2026-05-08 14:42 41.40362 19.71850 132 ft 16 kts 146°
2026-05-08 14:42 41.40273 19.71939 132 ft 16 kts 143°
2026-05-08 14:42 41.40241 19.72057 133 ft 13 kts 83°
2026-05-08 14:43 41.40243 19.72085 133 ft 0 kts 83°
2026-05-08 14:43 41.40243 19.72086 133 ft 1 kts 83°
2026-05-08 14:43 41.40246 19.72110 133 ft 6 kts 83°
2026-05-08 14:43 41.40259 19.72207 132 ft 14 kts 59°
2026-05-08 14:44 41.40315 19.72211 132 ft 0 kts 357°
2026-05-08 14:44 41.40323 19.72210 132 ft 8 kts 356°
2026-05-08 14:44 41.40577 19.72177 133 ft 70 kts 355°
2026-05-08 14:44 41.41265 19.72083 125 ft 127 kts 354°
2026-05-08 14:45 41.42308 19.71938 207 ft 166 kts 353°
2026-05-08 14:45 41.43459 19.71766 743 ft 169 kts 355°
2026-05-08 14:45 41.44637 19.71619 1370 ft 171 kts 357°
2026-05-08 14:45 41.45816 19.71497 2114 ft 168 kts 358°
2026-05-08 14:46 41.47014 19.71366 2572 ft 182 kts 359°
2026-05-08 14:46 41.48343 19.71254 3040 ft 202 kts 359°
2026-05-08 14:46 41.49843 19.71114 3415 ft 229 kts 358°
2026-05-08 14:46 41.51518 19.70936 3830 ft 253 kts 358°
2026-05-08 14:47 41.53319 19.70772 4390 ft 269 kts
2026-05-08 14:47 41.55202 19.71050 5178 ft 275 kts
2026-05-08 14:47 41.57116 19.71385 6070 ft 280 kts
2026-05-08 14:47 41.59068 19.71738 6889 ft 285 kts
2026-05-08 14:48 41.61054 19.72102 7714 ft 290 kts
2026-05-08 14:48 41.63081 19.72474 8543 ft 296 kts
2026-05-08 14:48 41.65140 19.72850 9337 ft 303 kts
2026-05-08 14:48 41.67249 19.73231 10162 ft 307 kts
2026-05-08 14:49 41.69428 19.73622 10554 ft 328 kts
2026-05-08 14:49 41.71743 19.74038 10854 ft 351 kts
2026-05-08 14:49 41.74206 19.74480 11405 ft 361 kts
2026-05-08 14:49 41.76711 19.74933 12180 ft 364 kts
2026-05-08 14:50 41.79251 19.75402 12891 ft 370 kts
2026-05-08 14:50 41.81824 19.75881 13643 ft 376 kts
2026-05-08 14:50 41.84426 19.76367 14340 ft 378 kts
2026-05-08 14:50 41.87038 19.76855 15076 ft 380 kts
2026-05-08 14:51 41.89660 19.77343 15773 ft 382 kts
2026-05-08 14:51 41.92314 19.77830 16384 ft 387 kts
2026-05-08 14:51 41.94989 19.78313 17086 ft 389 kts
2026-05-08 14:51 41.97687 19.78790 17736 ft 392 kts
2026-05-08 14:52 42.00409 19.79261 18343 ft 396 kts
2026-05-08 14:52 42.05909 19.80170 19491 ft 401 kts
2026-05-08 14:52 42.08694 19.80585 20056 ft 403 kts
2026-05-08 14:53 42.11464 19.80960 20593 ft 406 kts
2026-05-08 14:53 42.14289 19.81304 21117 ft 409 kts
2026-05-08 14:53 42.17137 19.81614 21651 ft 412 kts
2026-05-08 14:53 42.20009 19.81889 22207 ft 415 kts
2026-05-08 14:54 42.22905 19.82130 22716 ft 419 kts
2026-05-08 14:54 42.25827 19.82347 23241 ft 422 kts
2026-05-08 14:54 42.28776 19.82530 23714 ft 425 kts
2026-05-08 14:54 42.31741 19.82691 24157 ft 427 kts
2026-05-08 14:55 42.34716 19.82822 24603 ft 429 kts
2026-05-08 14:55 42.37716 19.82931 25006 ft 432 kts
2026-05-08 14:55 42.40696 19.83033 25394 ft 435 kts
2026-05-08 14:55 42.43730 19.83130 25805 ft 437 kts
2026-05-08 14:56 42.46775 19.83220 26197 ft 439 kts 360°
2026-05-08 14:56 42.49836 19.83265 26591 ft 441 kts 355°
2026-05-08 14:56 42.52909 19.82981 26966 ft 443 kts 356°
2026-05-08 14:56 42.55997 19.82881 27328 ft 445 kts 356°
2026-05-08 14:57 42.59100 19.82674 27685 ft 447 kts 354°
2026-05-08 14:57 42.62207 19.82302 28043 ft 449 kts 353°
2026-05-08 14:57 42.65327 19.81866 28394 ft 451 kts 352°
2026-05-08 14:57 42.68458 19.81427 28736 ft 453 kts 353°
2026-05-08 14:58 42.71601 19.80999 29047 ft 455 kts 353°
2026-05-08 14:58 42.74772 19.80579 29376 ft 458 kts 353°
2026-05-08 14:58 42.77949 19.80164 29673 ft 460 kts 353°
2026-05-08 14:58 42.81147 19.79751 29945 ft 463 kts 353°
2026-05-08 14:59 42.84358 19.79336 30225 ft 464 kts 353°
2026-05-08 14:59 42.90819 19.78500 30789 ft 468 kts 353°
2026-05-08 14:59 42.94017 19.78085 31057 ft 469 kts 353°
2026-05-08 15:00 42.97275 19.77661 31406 ft 469 kts 353°
2026-05-08 15:00 43.00524 19.77239 31782 ft 468 kts 353°
2026-05-08 15:00 43.03763 19.76818 32151 ft 467 kts 353°
2026-05-08 15:00 43.06999 19.76397 32535 ft 465 kts 353°
2026-05-08 15:01 43.10215 19.75978 32894 ft 464 kts 353°
2026-05-08 15:01 43.13429 19.75558 33242 ft 463 kts 353°
2026-05-08 15:01 43.16638 19.75139 33608 ft 462 kts 353°
2026-05-08 15:01 43.19836 19.74721 33932 ft 461 kts 353°
2026-05-08 15:02 43.22994 19.74307 34207 ft 460 kts 353°
2026-05-08 15:02 43.26180 19.73890 34503 ft 460 kts 353°
2026-05-08 15:02 43.29363 19.73473 34762 ft 459 kts 352°
2026-05-08 15:02 43.32545 19.73055 35004 ft 459 kts 352°
2026-05-08 15:03 43.35720 19.72638 35242 ft 458 kts 352°
2026-05-08 15:03 43.38894 19.72220 35468 ft 458 kts 352°
2026-05-08 15:03 43.42077 19.71794 35671 ft 458 kts 352°
2026-05-08 15:03 43.45205 19.71370 35885 ft 457 kts 352°
2026-05-08 15:04 43.48374 19.70945 36090 ft 457 kts 352°
2026-05-08 15:04 43.51548 19.70524 36275 ft 457 kts 352°
2026-05-08 15:04 43.54709 19.70106 36476 ft 457 kts 351°
2026-05-08 15:04 43.57876 19.69689 36633 ft 457 kts 351°
2026-05-08 15:05 43.61044 19.69271 36855 ft 456 kts 351°
2026-05-08 15:05 43.64198 19.68855 37050 ft 456 kts 351°
2026-05-08 15:05 43.67356 19.68437 37231 ft 455 kts 351°
2026-05-08 15:05 43.70513 19.68019 37395 ft 455 kts 351°
2026-05-08 15:06 43.73663 19.67602 37579 ft 454 kts 351°
2026-05-08 15:06 43.76811 19.67183 37739 ft 454 kts 351°
2026-05-08 15:06 43.79955 19.66765 37903 ft 454 kts 351°
2026-05-08 15:06 43.83059 19.66352 38018 ft 454 kts 351°
2026-05-08 15:07 43.89339 19.65513 38013 ft 453 kts 351°
2026-05-08 15:07 43.95622 19.64671 38004 ft 453 kts 351°
2026-05-08 15:08 44.00844 19.63971 38015 ft 453 kts 351°
2026-05-08 15:08 44.08191 19.62984 38013 ft 453 kts 351°
2026-05-08 15:09 44.14465 19.62138 38007 ft 452 kts 351°
2026-05-08 15:09 44.20700 19.61296 38004 ft 452 kts 351°
2026-05-08 15:10 44.26965 19.60453 37997 ft 452 kts 351°
2026-05-08 15:10 44.33221 19.59623 37994 ft 451 kts 351°
2026-05-08 15:11 44.39477 19.58778 37988 ft 451 kts 351°
2026-05-08 15:11 44.45735 19.57923 37988 ft 452 kts 351°
2026-05-08 15:12 44.51998 19.57064 37982 ft 452 kts 351°
2026-05-08 15:12 44.58266 19.56204 37989 ft 452 kts 351°
2026-05-08 15:13 44.64547 19.55340 37993 ft 453 kts 351°
2026-05-08 15:13 44.70793 19.54479 38001 ft 454 kts 351°
2026-05-08 15:14 44.77087 19.53610 38004 ft 455 kts 351°
2026-05-08 15:14 44.83402 19.52736 38007 ft 456 kts 351°
2026-05-08 15:15 44.89721 19.51861 38014 ft 456 kts 350°
2026-05-08 15:15 44.96048 19.50982 38020 ft 457 kts 350°
2026-05-08 15:16 45.02372 19.50103 38005 ft 456 kts 350°
2026-05-08 15:16 45.08684 19.49223 38005 ft 456 kts 350°
2026-05-08 15:17 45.14995 19.48340 38008 ft 456 kts 350°
2026-05-08 15:17 45.21314 19.47455 38006 ft 456 kts 350°
2026-05-08 15:18 45.27591 19.46574 38005 ft 456 kts 350°
2026-05-08 15:18 45.33914 19.45684 38012 ft 457 kts 350°
2026-05-08 15:19 45.40247 19.44792 38014 ft 457 kts 350°
2026-05-08 15:19 45.46585 19.43896 38017 ft 457 kts 350°
2026-05-08 15:20 45.52918 19.42999 38017 ft 457 kts 350°
2026-05-08 15:20 45.59244 19.42102 38018 ft 457 kts 350°
2026-05-08 15:21 45.65574 19.41202 38008 ft 455 kts 349°
2026-05-08 15:21 45.71878 19.40304 38013 ft 455 kts 349°
2026-05-08 15:22 45.77114 19.39555 38015 ft 455 kts 349°
2026-05-08 15:22 45.84437 19.38507 38016 ft 455 kts 349°
2026-05-08 15:23 45.90743 19.37602 38010 ft 455 kts 349°
2026-05-08 15:23 45.96026 19.36843 38019 ft 455 kts 349°
2026-05-08 15:24 46.02325 19.35933 38020 ft 455 kts 348°
2026-05-08 15:24 46.08376 19.33952 38016 ft 446 kts 337°
2026-05-08 15:25 46.14318 19.31286 38014 ft 447 kts 338°
2026-05-08 15:25 46.20268 19.28644 38018 ft 447 kts 338°
2026-05-08 15:26 46.26217 19.25985 38022 ft 447 kts 338°
2026-05-08 15:26 46.32116 19.23328 38022 ft 446 kts 337°
2026-05-08 15:27 46.38047 19.20639 38022 ft 446 kts 337°
2026-05-08 15:27 46.43980 19.17961 38026 ft 446 kts 338°
2026-05-08 15:28 46.49909 19.15288 38028 ft 446 kts 338°
2026-05-08 15:28 46.55796 19.12641 38029 ft 445 kts 338°
2026-05-08 15:29 46.61720 19.09957 38028 ft 445 kts 338°
2026-05-08 15:29 46.67634 19.07265 38027 ft 445 kts 338°
2026-05-08 15:30 46.73539 19.04570 38024 ft 444 kts 338°
2026-05-08 15:30 46.79435 19.01873 38023 ft 444 kts 338°
2026-05-08 15:31 46.85327 18.99172 38022 ft 443 kts 337°
2026-05-08 15:31 46.91212 18.96468 38021 ft 443 kts 337°
2026-05-08 15:32 46.97088 18.93761 38019 ft 443 kts 337°
2026-05-08 15:32 47.02931 18.91063 38018 ft 442 kts 337°
2026-05-08 15:33 47.08817 18.88339 38026 ft 442 kts 337°
2026-05-08 15:33 47.14687 18.85616 38026 ft 442 kts 337°
2026-05-08 15:34 47.20556 18.82888 38027 ft 442 kts 337°
2026-05-08 15:34 47.26383 18.80172 38028 ft 442 kts 337°
2026-05-08 15:35 47.32246 18.77434 38029 ft 441 kts 337°
2026-05-08 15:35 47.38105 18.74691 38034 ft 441 kts 337°
2026-05-08 15:36 47.43960 18.71944 38038 ft 441 kts 337°
2026-05-08 15:36 47.49822 18.69187 38040 ft 441 kts 337°
2026-05-08 15:37 47.55630 18.66449 38034 ft 440 kts 337°
2026-05-08 15:37 47.61476 18.63686 38029 ft 440 kts 337°
2026-05-08 15:38 47.67310 18.60923 38027 ft 440 kts 337°
2026-05-08 15:38 47.73134 18.58158 38022 ft 439 kts 337°
2026-05-08 15:39 47.78930 18.55400 38023 ft 439 kts 336°
2026-05-08 15:39 47.84762 18.52618 38010 ft 440 kts 336°
2026-05-08 15:40 47.90590 18.49832 38013 ft 440 kts 336°
2026-05-08 15:40 47.96429 18.47033 38016 ft 440 kts 337°
2026-05-08 15:41 48.02271 18.44226 38017 ft 441 kts 337°
2026-05-08 15:41 48.08118 18.41410 38020 ft 442 kts 337°
2026-05-08 15:42 48.13978 18.38581 38027 ft 442 kts 337°
2026-05-08 15:42 48.19811 18.35759 38030 ft 443 kts 337°
2026-05-08 15:43 48.25693 18.32906 38037 ft 444 kts 337°
2026-05-08 15:43 48.31578 18.30045 38045 ft 445 kts 337°
2026-05-08 15:44 48.37481 18.27168 38053 ft 445 kts 337°
2026-05-08 15:44 48.43371 18.24292 38047 ft 444 kts 337°
2026-05-08 15:45 48.49203 18.21436 38046 ft 444 kts 337°
2026-05-08 15:45 48.55080 18.18550 38048 ft 444 kts 337°
2026-05-08 15:46 48.60947 18.15664 38049 ft 444 kts 337°
2026-05-08 15:46 48.66832 18.12760 38054 ft 444 kts 337°
2026-05-08 15:47 48.72713 18.09852 38055 ft 444 kts 337°
2026-05-08 15:47 48.78542 18.06962 38046 ft 443 kts 337°
2026-05-08 15:48 48.87324 18.02593 38051 ft 442 kts 337°
2026-05-08 15:49 48.93172 17.99676 38059 ft 442 kts 337°
2026-05-08 15:49 48.99022 17.96754 38061 ft 442 kts 337°
2026-05-08 15:50 49.04885 17.93837 38064 ft 443 kts 338°
2026-05-08 15:50 49.10740 17.91054 38074 ft 444 kts 338°
2026-05-08 15:51 49.16652 17.88249 38080 ft 444 kts 338°
2026-05-08 15:51 49.22564 17.85424 38092 ft 444 kts 338°
2026-05-08 15:52 49.28473 17.82586 38089 ft 445 kts 338°
2026-05-08 15:52 49.34371 17.79746 38091 ft 445 kts 338°
2026-05-08 15:53 49.40240 17.76911 38097 ft 445 kts 338°
2026-05-08 15:53 49.46150 17.74051 38110 ft 445 kts 339°
2026-05-08 15:54 49.52067 17.71180 38116 ft 445 kts 339°
2026-05-08 15:54 49.57976 17.68305 38119 ft 445 kts 339°
2026-05-08 15:55 49.63892 17.65419 38126 ft 446 kts 339°
2026-05-08 15:55 49.72728 17.61097 38132 ft 446 kts 339°
2026-05-08 15:56 49.78653 17.58189 38138 ft 446 kts 339°
2026-05-08 15:56 49.84571 17.55277 38141 ft 446 kts 339°
2026-05-08 15:57 49.90487 17.52350 38149 ft 446 kts 338°
2026-05-08 15:57 49.96350 17.49201 38152 ft 445 kts 337°
2026-05-08 15:58 50.02200 17.46015 38153 ft 445 kts 337°
2026-05-08 15:58 50.08022 17.42871 38152 ft 445 kts 338°
2026-05-08 15:59 50.13871 17.39717 38147 ft 445 kts 338°
2026-05-08 15:59 50.19719 17.36555 38149 ft 445 kts 337°
2026-05-08 16:00 50.25558 17.33385 38143 ft 444 kts 337°
2026-05-08 16:00 50.31405 17.30203 38144 ft 444 kts 337°
2026-05-08 16:01 50.37235 17.27020 38150 ft 444 kts 337°
2026-05-08 16:01 50.43076 17.23824 38152 ft 444 kts 337°
2026-05-08 16:02 50.48904 17.20627 38148 ft 444 kts 337°
2026-05-08 16:02 50.54736 17.17420 38147 ft 444 kts 337°
2026-05-08 16:03 50.60524 17.14228 38143 ft 444 kts 337°
2026-05-08 16:03 50.66352 17.11006 38143 ft 444 kts 337°
2026-05-08 16:04 50.72189 17.07770 38142 ft 444 kts 337°
2026-05-08 16:04 50.78033 17.04523 38156 ft 445 kts 337°
2026-05-08 16:05 50.83878 17.01266 38162 ft 445 kts 337°
2026-05-08 16:05 50.89698 16.98014 38158 ft 446 kts 337°
2026-05-08 16:06 50.95545 16.94738 38160 ft 446 kts 337°
2026-05-08 16:06 51.01408 16.91444 38161 ft 447 kts 337°
2026-05-08 16:07 51.07282 16.88133 38152 ft 445 kts 337°
2026-05-08 16:07 51.13101 16.84847 38155 ft 446 kts 337°
2026-05-08 16:08 51.18976 16.81518 38160 ft 449 kts 337°
2026-05-08 16:08 51.24823 16.78195 38155 ft 448 kts 337°
2026-05-08 16:09 51.29739 16.75385 38159 ft 448 kts 337°
2026-05-08 16:09 51.35592 16.72040 38157 ft 449 kts 337°
2026-05-08 16:10 51.41485 16.68666 38160 ft 449 kts 337°
2026-05-08 16:10 51.47387 16.65277 38160 ft 450 kts 337°
2026-05-08 16:11 51.53278 16.61888 38162 ft 450 kts 337°
2026-05-08 16:11 51.59178 16.58484 38163 ft 450 kts 337°
2026-05-08 16:12 51.65047 16.55100 38166 ft 450 kts 337°
2026-05-08 16:12 51.70960 16.51687 38163 ft 451 kts 337°
2026-05-08 16:13 51.76858 16.48260 38160 ft 451 kts 337°
2026-05-08 16:13 51.82760 16.44816 38162 ft 451 kts 337°
2026-05-08 16:14 51.88666 16.41358 38169 ft 451 kts 337°
2026-05-08 16:14 51.94543 16.37908 38170 ft 451 kts 337°
2026-05-08 16:15 52.00451 16.34429 38163 ft 452 kts 337°
2026-05-08 16:15 52.06359 16.30941 38174 ft 452 kts 337°
2026-05-08 16:16 52.12268 16.27426 38178 ft 452 kts 336°
2026-05-08 16:16 52.18175 16.23910 38178 ft 452 kts 337°
2026-05-08 16:17 52.24100 16.20400 38178 ft 452 kts 337°
2026-05-08 16:17 52.30007 16.16875 38174 ft 452 kts 336°
2026-05-08 16:18 52.35923 16.13335 38170 ft 452 kts 337°
2026-05-08 16:18 52.41834 16.09796 38167 ft 453 kts 337°
2026-05-08 16:19 52.47753 16.06229 38167 ft 453 kts 337°
2026-05-08 16:19 52.53627 16.02663 38168 ft 453 kts 336°
2026-05-08 16:20 52.59543 15.99084 38170 ft 453 kts 337°
2026-05-08 16:20 52.65464 15.95506 38172 ft 453 kts 337°
2026-05-08 16:21 52.71390 15.91889 38163 ft 453 kts 337°
2026-05-08 16:21 52.77304 15.88276 38173 ft 454 kts 337°
2026-05-08 16:22 52.83193 15.84673 38172 ft 454 kts 337°
2026-05-08 16:22 52.89114 15.81022 38177 ft 454 kts 337°
2026-05-08 16:23 52.95036 15.77371 38168 ft 454 kts 337°
2026-05-08 16:23 53.00965 15.73709 38170 ft 454 kts 337°
2026-05-08 16:24 53.06894 15.70040 38172 ft 454 kts 337°
2026-05-08 16:24 53.12796 15.66373 38183 ft 455 kts 337°
2026-05-08 16:25 53.18723 15.62680 38181 ft 454 kts 337°
2026-05-08 16:25 53.24653 15.58974 38190 ft 455 kts 337°
2026-05-08 16:26 53.30582 15.55259 38180 ft 455 kts 337°
2026-05-08 16:26 53.36525 15.51522 38186 ft 455 kts 337°
2026-05-08 16:27 53.42458 15.47786 38186 ft 455 kts 337°
2026-05-08 16:27 53.48355 15.44070 38190 ft 455 kts 337°
2026-05-08 16:28 53.54281 15.40303 38189 ft 455 kts 337°
2026-05-08 16:28 53.60205 15.36523 38190 ft 455 kts 337°
2026-05-08 16:29 53.66131 15.32737 38191 ft 455 kts 337°
2026-05-08 16:29 53.72025 15.28963 38192 ft 455 kts 337°
2026-05-08 16:30 53.77941 15.25178 38198 ft 455 kts 337°
2026-05-08 16:30 53.83858 15.21385 38199 ft 454 kts 337°
2026-05-08 16:31 53.89770 15.17569 38209 ft 454 kts 337°
2026-05-08 16:31 53.95676 15.13739 38215 ft 454 kts 337°
2026-05-08 16:32 54.01582 15.09888 38218 ft 454 kts 336°
2026-05-08 16:32 54.07454 15.06038 38219 ft 454 kts 337°
2026-05-08 16:33 54.13360 15.02194 38222 ft 454 kts 337°
2026-05-08 16:33 54.19261 14.98334 38220 ft 454 kts 337°
2026-05-08 16:34 54.25155 14.94435 38225 ft 454 kts 336°
2026-05-08 16:34 54.31040 14.90533 38226 ft 454 kts 337°
2026-05-08 16:35 54.36941 14.86646 38228 ft 454 kts 337°
2026-05-08 16:35 54.42799 14.82768 38234 ft 454 kts 337°
2026-05-08 16:36 54.48686 14.78843 38233 ft 454 kts 336°
2026-05-08 16:36 54.54576 14.74881 38236 ft 454 kts 336°
2026-05-08 16:37 54.60464 14.70924 38237 ft 454 kts 336°
2026-05-08 16:37 54.66363 14.66953 38242 ft 454 kts 336°
2026-05-08 16:38 54.72262 14.62987 38248 ft 454 kts 336°
2026-05-08 16:38 54.78119 14.59037 38258 ft 454 kts 336°
2026-05-08 16:39 54.83945 14.54813 38261 ft 453 kts 332°
2026-05-08 16:39 54.89688 14.50230 38263 ft 454 kts 334°
2026-05-08 16:40 54.95438 14.45722 38263 ft 453 kts 333°
2026-05-08 16:40 55.01183 14.41159 38268 ft 453 kts 333°
2026-05-08 16:41 55.06915 14.36544 38267 ft 453 kts 333°
2026-05-08 16:42 55.15529 14.29627 38263 ft 453 kts 333°
2026-05-08 16:42 55.21255 14.25045 38264 ft 452 kts 334°
2026-05-08 16:43 55.26954 14.20498 38260 ft 452 kts 334°
2026-05-08 16:43 55.32689 14.15864 38266 ft 452 kts 334°
2026-05-08 16:44 55.38403 14.11252 38272 ft 451 kts 334°
2026-05-08 16:44 55.44074 14.06633 38275 ft 452 kts 333°
2026-05-08 16:45 55.49773 14.01965 38271 ft 451 kts 333°
2026-05-08 16:45 55.55466 13.97286 38272 ft 451 kts 333°
2026-05-08 16:46 55.61160 13.92593 38277 ft 450 kts 333°
2026-05-08 16:46 55.66841 13.87897 38281 ft 450 kts 333°
2026-05-08 16:47 55.72515 13.83191 38282 ft 450 kts 333°
2026-05-08 16:47 55.78149 13.78505 38286 ft 450 kts 333°
2026-05-08 16:48 55.83820 13.73772 38284 ft 449 kts 333°
2026-05-08 16:48 55.89478 13.69036 38283 ft 449 kts 333°
2026-05-08 16:49 55.95141 13.64280 38280 ft 449 kts 333°
2026-05-08 16:49 56.00791 13.59520 38270 ft 449 kts 333°
2026-05-08 16:50 56.06438 13.54747 38268 ft 449 kts 333°
2026-05-08 16:50 56.12053 13.49987 38269 ft 449 kts 333°
2026-05-08 16:51 56.17705 13.45180 38265 ft 449 kts 333°
2026-05-08 16:51 56.23353 13.40361 38266 ft 449 kts 333°
2026-05-08 16:52 56.29000 13.35527 38270 ft 449 kts 333°
2026-05-08 16:52 56.34612 13.30706 38264 ft 448 kts 333°
2026-05-08 16:53 56.43047 13.23433 38261 ft 448 kts 333°
2026-05-08 16:53 56.48657 13.18574 38271 ft 447 kts 333°
2026-05-08 16:54 56.54273 13.13695 38284 ft 447 kts 332°
2026-05-08 16:54 56.59866 13.08820 38283 ft 446 kts 332°
2026-05-08 16:55 56.65458 13.03931 38288 ft 446 kts 332°
2026-05-08 16:55 56.70105 12.99855 38286 ft 445 kts 332°
2026-05-08 16:56 56.76595 12.94143 38304 ft 445 kts 332°
2026-05-08 16:56 56.81263 12.90022 38296 ft 445 kts 332°
2026-05-08 16:57 56.86799 12.85119 38285 ft 444 kts 332°
2026-05-08 16:57 56.92363 12.80176 38290 ft 444 kts 332°
2026-05-08 16:58 56.97906 12.75235 38267 ft 441 kts 332°
2026-05-08 16:58 57.03423 12.70301 38252 ft 441 kts 332°
2026-05-08 16:59 57.08946 12.65344 38255 ft 440 kts 332°
2026-05-08 16:59 57.14412 12.60422 38253 ft 439 kts 332°
2026-05-08 17:00 57.19937 12.55430 38258 ft 439 kts 332°
2026-05-08 17:00 57.25387 12.50490 38260 ft 439 kts 332°
2026-05-08 17:01 57.30970 12.45871 38264 ft 441 kts 340°
2026-05-08 17:01 57.36839 12.42489 38258 ft 441 kts 340°
2026-05-08 17:02 57.42698 12.39099 38257 ft 441 kts 340°
2026-05-08 17:02 57.48561 12.35689 38251 ft 441 kts 340°
2026-05-08 17:03 57.54383 12.32287 38251 ft 441 kts 340°
2026-05-08 17:03 57.60235 12.28856 38243 ft 441 kts 339°
2026-05-08 17:04 57.66086 12.25414 38246 ft 440 kts 339°
2026-05-08 17:04 57.71928 12.21967 38244 ft 439 kts 339°
2026-05-08 17:05 57.77749 12.18519 38244 ft 439 kts 339°
2026-05-08 17:05 57.83750 12.16055 38259 ft 444 kts 348°
2026-05-08 17:06 57.89871 12.14409 38258 ft 444 kts 348°
2026-05-08 17:06 57.95987 12.12748 38266 ft 444 kts 348°
2026-05-08 17:07 58.02069 12.11083 38261 ft 444 kts 348°
2026-05-08 17:07 58.08200 12.09395 38255 ft 445 kts 348°
2026-05-08 17:08 58.14338 12.07722 38242 ft 445 kts 349°
2026-05-08 17:08 58.20436 12.06066 38244 ft 445 kts 348°
2026-05-08 17:09 58.26574 12.04354 38245 ft 445 kts 347°
2026-05-08 17:09 58.32699 12.02597 38247 ft 445 kts 348°
2026-05-08 17:10 58.38827 12.00862 38247 ft 446 kts 348°
2026-05-08 17:10 58.44965 11.99132 38248 ft 446 kts 348°
2026-05-08 17:11 58.51105 11.97403 38254 ft 446 kts 347°
2026-05-08 17:11 58.57249 11.95668 37981 ft 445 kts 348°
2026-05-08 17:12 58.60302 11.94805 37710 ft 442 kts 347°
2026-05-08 17:12 58.63339 11.93945 37445 ft 440 kts 347°
2026-05-08 17:12 58.66328 11.93094 37177 ft 439 kts 347°
2026-05-08 17:12 58.69354 11.92229 36891 ft 439 kts 347°
2026-05-08 17:13 58.72387 11.91355 36301 ft 441 kts 347°
2026-05-08 17:13 58.75426 11.90483 35619 ft 442 kts 347°
2026-05-08 17:13 58.78480 11.89610 34851 ft 444 kts 347°
2026-05-08 17:13 58.81529 11.88736 34128 ft 442 kts 347°
2026-05-08 17:14 58.84570 11.87851 33337 ft 441 kts 347°
2026-05-08 17:14 58.87594 11.86981 32604 ft 439 kts 347°
2026-05-08 17:14 58.90615 11.86107 31870 ft 438 kts 347°
2026-05-08 17:14 58.93620 11.85233 31300 ft 433 kts 347°
2026-05-08 17:15 58.96579 11.84373 30768 ft 428 kts 347°
2026-05-08 17:15 58.99511 11.83519 30224 ft 423 kts 346°
2026-05-08 17:15 59.02371 11.82689 29733 ft 417 kts 347°
2026-05-08 17:15 59.05270 11.81840 29449 ft 428 kts 347°
2026-05-08 17:16 59.08244 11.80964 28936 ft 435 kts 347°
2026-05-08 17:16 59.11244 11.80086 28364 ft 436 kts 347°
2026-05-08 17:16 59.14232 11.79218 27801 ft 431 kts 347°
2026-05-08 17:16 59.17182 11.78364 27236 ft 426 kts 347°
2026-05-08 17:17 59.20098 11.77513 26685 ft 420 kts 347°
2026-05-08 17:17 59.22973 11.76674 26137 ft 415 kts 347°
2026-05-08 17:17 59.25811 11.75847 25593 ft 410 kts 347°
2026-05-08 17:17 59.28619 11.75025 25056 ft 406 kts 347°
2026-05-08 17:18 59.31400 11.74203 24530 ft 401 kts 346°
2026-05-08 17:18 59.34150 11.73381 24006 ft 397 kts 346°
2026-05-08 17:18 59.36876 11.72571 23406 ft 394 kts 346°
2026-05-08 17:18 59.39566 11.71766 22913 ft 388 kts 346°
2026-05-08 17:19 59.42217 11.70968 22405 ft 382 kts 346°
2026-05-08 17:19 59.44830 11.70183 21900 ft 377 kts 346°
2026-05-08 17:19 59.47377 11.69421 21409 ft 373 kts 347°
2026-05-08 17:19 59.49946 11.68654 20916 ft 369 kts 347°
2026-05-08 17:20 59.52469 11.67903 20431 ft 365 kts 347°
2026-05-08 17:20 59.54934 11.67171 19955 ft 362 kts 347°
2026-05-08 17:20 59.57413 11.66423 19468 ft 359 kts 347°
2026-05-08 17:20 59.59875 11.65681 18994 ft 356 kts 347°
2026-05-08 17:21 59.62318 11.64949 18511 ft 354 kts 347°
2026-05-08 17:21 59.64747 11.64220 17998 ft 351 kts 347°
2026-05-08 17:21 59.67148 11.63491 17528 ft 347 kts 347°
2026-05-08 17:21 59.69520 11.62767 17062 ft 343 kts 347°
2026-05-08 17:22 59.71873 11.62048 16596 ft 340 kts 347°
2026-05-08 17:22 59.74202 11.61340 16127 ft 337 kts 348°
2026-05-08 17:22 59.76519 11.60641 15671 ft 335 kts 348°
2026-05-08 17:22 59.78814 11.59945 15218 ft 332 kts 348°
2026-05-08 17:23 59.81092 11.59255 14762 ft 330 kts 348°
2026-05-08 17:23 59.83363 11.58566 14318 ft 328 kts 348°
2026-05-08 17:23 59.85597 11.57887 13860 ft 327 kts 348°
2026-05-08 17:23 59.87835 11.57194 13411 ft 324 kts 348°
2026-05-08 17:24 59.90067 11.56503 12746 ft 327 kts 348°
2026-05-08 17:24 59.92313 11.55805 12308 ft 325 kts 348°
2026-05-08 17:24 59.94564 11.55102 12058 ft 338 kts 348°
2026-05-08 17:24 59.96938 11.54359 11931 ft 347 kts 348°
2026-05-08 17:25 59.99320 11.53619 11712 ft 346 kts 348°
2026-05-08 17:25 60.01714 11.52879 11102 ft 350 kts 349°
2026-05-08 17:25 60.04138 11.52131 10387 ft 354 kts 349°
2026-05-08 17:25 60.06532 11.51396 10201 ft 340 kts 349°
2026-05-08 17:26 60.08796 11.50703 10050 ft 326 kts 349°
2026-05-08 17:26 60.10996 11.50021 9914 ft 313 kts 349°
2026-05-08 17:26 60.13111 11.49368 9779 ft 300 kts 349°
2026-05-08 17:26 60.15149 11.48738 9504 ft 293 kts 349°
2026-05-08 17:27 60.17155 11.48114 9090 ft 291 kts 349°
2026-05-08 17:27 60.19153 11.47489 8642 ft 290 kts 349°
2026-05-08 17:27 60.21145 11.46862 8254 ft 288 kts 349°
2026-05-08 17:27 60.23099 11.46246 7827 ft 288 kts 349°
2026-05-08 17:28 60.25071 11.45629 7426 ft 286 kts 350°
2026-05-08 17:28 60.27037 11.45016 7013 ft 285 kts 350°
2026-05-08 17:28 60.29001 11.44393 6618 ft 284 kts 349°
2026-05-08 17:28 60.30948 11.43770 6253 ft 282 kts 351°
2026-05-08 17:29 60.32874 11.43184 5905 ft 279 kts 351°
2026-05-08 17:29 60.34792 11.42608 5556 ft 276 kts 350°
2026-05-08 17:29 60.36685 11.42028 5230 ft 274 kts 350°
2026-05-08 17:29 60.38534 11.41445 5105 ft 262 kts 348°
2026-05-08 17:30 60.40152 11.40082 5006 ft 246 kts 319°
2026-05-08 17:30 60.41145 11.37486 4980 ft 224 kts 288°
2026-05-08 17:30 60.41388 11.34558 4983 ft 203 kts 262°
2026-05-08 17:30 60.41098 11.31907 4980 ft 185 kts 252°
2026-05-08 17:31 60.40774 11.29426 5020 ft 184 kts 252°
2026-05-08 17:31 60.40455 11.26918 4970 ft 183 kts 251°
2026-05-08 17:31 60.39838 11.24734 4856 ft 183 kts 224°
2026-05-08 17:31 60.38802 11.23296 4645 ft 179 kts 205°
2026-05-08 17:32 60.37651 11.22416 4404 ft 174 kts 198°
2026-05-08 17:32 60.36513 11.21745 4178 ft 167 kts 196°
2026-05-08 17:32 60.35406 11.21101 3963 ft 163 kts 197°
2026-05-08 17:32 60.34327 11.20471 3739 ft 159 kts 197°
2026-05-08 17:33 60.33269 11.19854 3538 ft 157 kts 197°
2026-05-08 17:33 60.32217 11.19247 3322 ft 157 kts 197°
2026-05-08 17:33 60.31167 11.18631 3097 ft 156 kts 197°
2026-05-08 17:33 60.30131 11.18033 2893 ft 153 kts 197°
2026-05-08 17:34 60.29101 11.17435 2676 ft 156 kts 197°
2026-05-08 17:34 60.28077 11.16844 2470 ft 153 kts 198°
2026-05-08 17:34 60.27049 11.16247 2256 ft 152 kts 197°
2026-05-08 17:34 60.26093 11.15694 2119 ft 134 kts 197°
2026-05-08 17:35 60.25224 11.15191 1847 ft 127 kts 196°
2026-05-08 17:35 60.24391 11.14712 1690 ft 126 kts 196°
2026-05-08 17:35 60.23541 11.14225 1507 ft 126 kts 197°
2026-05-08 17:35 60.22702 11.13729 1299 ft 126 kts 197°
2026-05-08 17:36 60.21862 11.13256 1111 ft 125 kts 197°
2026-05-08 17:36 60.21036 11.12772 918 ft 122 kts 196°
2026-05-08 17:36 60.20235 11.12321 780 ft 117 kts 196°
2026-05-08 17:36 60.19483 11.11886 682 ft 103 kts 196°
2026-05-08 17:37 60.18990 11.11598 684 ft 45 kts 197°
2026-05-08 17:37 60.18712 11.11439 683 ft 39 kts 196°
2026-05-08 17:37 60.18489 11.11241 680 ft 15 kts 217°
2026-05-08 17:37 60.18450 11.11165 680 ft 8 kts 237°
2026-05-08 17:38 60.18437 11.11031 679 ft 13 kts 276°
2026-05-08 17:38 60.18464 11.10849 679 ft 14 kts 286°
2026-05-08 17:38 60.18539 11.10766 681 ft 15 kts
2026-05-08 17:38 60.18649 11.10832 679 ft 18 kts 24°
2026-05-08 17:39 60.18778 11.10914 682 ft 21 kts 16°
2026-05-08 17:39 60.18927 11.10998 682 ft 24 kts 16°
2026-05-08 17:39 60.19095 11.11092 678 ft 26 kts 15°
2026-05-08 17:39 60.19277 11.11195 683 ft 28 kts 15°
2026-05-08 17:40 60.19400 11.11249 681 ft 13 kts 339°
2026-05-08 17:40 60.19439 11.11093 682 ft 13 kts 285°
2026-05-08 17:40 60.19441 11.10973 680 ft 6 kts 214°
2026-05-08 17:40 60.19391 11.10944 682 ft 9 kts 197°
2026-05-08 17:41 60.19354 11.10923 682 ft 0 kts 196°